Regional Weather Roundup
Issued by NWS

Home | Current Version | Previous Version | Text Only | Print | Product List | Glossary Off
Versions: 1 2 3 4 5 6 7 8 9 10 11 12 13 14 15 16 17 18 19 20 21 22 23 24 25 26 27 28 29 30 31 32 33 34 35 36 37 38 39 40 41 42 43 44 45 46 47 48 49 50

000
ASUS45 KCYS 051110
RWRWY

WYOMING REGIONAL WEATHER ROUNDUP
NATIONAL WEATHER SERVICE CHEYENNE WY
500 AM MDT WED AUG 05 2015

NOTE:  "FAIR" INDICATES FEW OR NO CLOUDS BELOW 12,000 FEET
WITH NO SIGNIFICANT WEATHER AND/OR OBSTRUCTIONS TO VISIBILITY.

WYZ001-051200-
YELLOWSTONE NATIONAL PARK

CITY           SKY/WX    TMP DP  RH WIND       PRES   REMARKS
LK YELLOWSTONE   N/A     39  38  96 CALM      30.26F
W YELLOWSTONE  NOT AVBL

$$
WYZ002>013-054>058-071-098>099-051200-
NORTHERN WYOMING

CITY           SKY/WX    TMP DP  RH WIND       PRES   REMARKS
JACKSON        NOT AVBL
CODY           FAIR      61  45  55 SE9       30.08F
GREYBULL       FAIR      57  53  86 SE3       30.03S
WORLAND        FAIR      54  52  93 SE5       30.05S
SHERIDAN       FAIR      51  48  89 CALM      30.01S
BUFFALO        FAIR      57  46  66 CALM      30.07F
GILLETTE       FAIR      58  54  86 S5        30.05S
HULETT         FAIR      54  52  94 S7        30.06R
NEWCASTLE      FAIR      55  54  94 N6        30.07S

$$
WYZ014>020-022>026-101>103-051200-
CENTRAL WYOMING

CITY           SKY/WX    TMP DP  RH WIND       PRES   REMARKS
BIG PINEY      CLOUDY    50  45  83 NE6       30.23F
PINEDALE       FAIR      46  45  93 CALM      30.27R
DUBOIS         FAIR      46  39  76 N3        30.21F
LANDER         FAIR      59  47  64 CALM      30.12S
RIVERTON       FAIR      56  48  74 N6        30.13S
CASPER         FAIR      53  50  89 W3        30.12S
DOUGLAS        FAIR      51  50  96 CALM      30.11F

$$
WYZ021-027>030-104>119-051200-
SOUTHERN WYOMING

CITY           SKY/WX    TMP DP  RH WIND       PRES   REMARKS
EVANSTON       FAIR      58  40  51 N5        30.21R
KEMMERER       PTSUNNY   54  36  50 N12       30.23F
FORT BRIDGER   MOSUNNY   55  43  62 NE6       30.23S
ROCK SPRINGS   FAIR      56  42  59 E6        30.20S
DIXON          FAIR      52  38  57 NE6       30.25F
RAWLINS        FAIR      47  40  76 CALM      30.23S
SARATOGA       FAIR      55  34  44 SE16      30.27S
LARAMIE        FAIR      47  38  71 S3        30.26S
CHEYENNE       FAIR      55  49  80 CALM      30.18F
TORRINGTON     FOG       57  56  96 CALM      30.06F VSB 1/4
PINE BLUFFS    FAIR      52  50  93 CALM      30.14S

$$


USA.gov is the U.S. government's official web portal to all federal, state and local government web resources and services.